FW7071 Weather Reports


Display with metric or nautical units.
time (UTC)temp
F
wind
direction
speed
MPH
gust
MPH
rain 1hr
in
rain 24hr
in
rain mn
in
humidity
%
barometer
mb
20260510230845 61 188 0.0 0.0 0.07 0.04 0.04 96 1015.9
20260510230340 61 203 0.0 0.0 0.07 0.04 0.04 95 1016.1
20260510225837 61 219 0.0 0.0 0.05 0.03 0.03 95 1015.9
20260510225333 62 217 0.0 1.0 0.05 0.03 0.03 93 1016.2
20260510224829 62 223 1.0 1.0 0.00 0.02 0.02 91 1016.1
20260510224326 62 160 0.0 0.0 0.07 0.02 0.02 90 1016.3
20260510223823 63 232 1.0 2.0 0.07 0.02 0.02 88 1016.4
20260510223320 63 225 1.0 2.0 0.00 0.01 0.01 87 1015.9
20260510222817 63 231 1.0 2.0 0.00 0.01 0.01 86 1015.7
20260510222314 63 225 1.0 1.0 0.00 0.01 0.01 86 1015.7
20260510221809 63 102 1.0 1.0 0.00 0.01 0.01 85 1015.3
20260510221306 64 198 0.0 0.0 0.00 0.01 0.01 83 1015.4
20260510220803 64 236 0.0 1.0 0.00 0.01 0.01 82 1015.6
20260510220258 64 237 1.0 1.0 0.00 0.01 0.01 82 1015.4
20260510215755 64 239 0.0 0.0 0.00 0.01 0.01 81 1015.6
20260510215253 64 297 1.0 1.0 0.00 0.01 0.01 80 1015.5
20260510214750 64 296 1.0 2.0 0.00 0.01 0.01 81 1015.5
20260510214247 64 295 1.0 1.0 0.00 0.01 0.01 81 1015.6
20260510213744 64 276 1.0 1.0 0.00 0.01 0.01 83 1015.3
20260510213241 64 276 1.0 2.0 0.00 0.01 0.01 83 1015.3
20260510212737 64 123 0.0 0.0 0.00 0.01 0.01 83 1015.2
20260510212234 64 232 0.0 0.0 0.00 0.01 0.01 82 1015.2
20260510211731 64 137 0.0 0.0 0.00 0.01 0.01 81 1015.1
20260510211226 65 226 0.0 0.0 0.00 0.01 0.01 79 1015.2
20260510210722 65 219 0.0 0.0 0.00 0.01 0.01 78 1015.2
20260510210217 65 242 1.0 1.0 0.00 0.01 0.01 78 1015.2
20260510205711 65 269 1.0 2.0 0.00 0.01 0.01 77 1015.3
20260510205207 65 295 1.0 2.0 0.00 0.01 0.01 77 1015.1
20260510204703 65 167 0.0 1.0 0.00 0.01 0.01 76 1015.0
20260510204200 66 308 4.0 5.0 0.00 0.01 0.01 75 1014.7
20260510203657 66 226 0.0 0.0 0.00 0.01 0.01 74 1015.1
20260510203154 67 309 3.0 3.0 0.00 0.01 0.01 71 1015.1
20260510202654 67 314 2.0 2.0 0.00 0.01 0.01 71 1015.3
20260510202149 68 201 2.0 2.0 0.00 0.01 0.01 71 1015.1
20260510201647 68 196 3.0 5.0 0.00 0.01 0.01 69 1015.0
20260510201143 69 299 5.0 6.0 0.00 0.01 0.01 68 1014.9
20260510200640 69 306 3.0 5.0 0.00 0.01 0.01 67 1015.1
20260510200138 69 50 1.0 1.0 0.00 0.01 0.01 68 1015.1
20260510195635 70 285 6.0 7.0 0.00 0.01 0.01 67 1014.9
20260510195131 71 269 1.0 3.0 0.00 0.01 0.01 67 1015.0
20260510194630 71 277 1.0 2.0 0.00 0.01 0.01 66 1014.9
20260510194127 71 214 1.0 2.0 0.00 0.01 0.01 65 1014.9
20260510193622 71 311 3.0 6.0 0.00 0.01 0.01 64 1014.9
20260510193118 72 278 7.0 9.0 0.00 0.01 0.01 64 1015.0
20260510192613 72 216 3.0 5.0 0.00 0.01 0.01 64 1015.1
20260510192109 73 214 3.0 3.0 0.00 0.01 0.01 67 1015.0
20260510191606 72 203 4.0 6.0 0.00 0.01 0.01 65 1015.1
20260510191102 72 299 5.0 8.0 0.00 0.01 0.01 64 1014.9
20260510190600 72 228 3.0 5.0 0.00 0.01 0.01 66 1014.9
20260510190057 72 314 5.0 9.0 0.00 0.01 0.01 67 1014.8
20260510185554 73 318 6.0 10.0 0.00 0.01 0.01 64 1015.1
20260510185051 74 305 10.0 14.0 0.00 0.01 0.01 65 1015.0
20260510184548 74 319 3.0 3.0 0.00 0.01 0.01 65 1015.1
20260510184044 73 343 5.0 7.0 0.00 0.01 0.01 65 1014.9
20260510183539 72 309 4.0 5.0 0.00 0.01 0.01 66 1015.1
20260510183034 73 319 5.0 7.0 0.00 0.01 0.01 68 1015.2
20260510182532 72 258 3.0 3.0 0.00 0.01 0.01 67 1015.1
20260510182027 72 310 3.0 3.0 0.00 0.01 0.01 68 1015.3
20260510181525 72 266 7.0 9.0 0.00 0.01 0.01 68 1015.4
20260510181020 72 275 3.0 3.0 0.00 0.01 0.01 69 1015.2
20260510180518 72 258 4.0 8.0 0.00 0.01 0.01 69 1015.4
20260510180015 73 326 2.0 5.0 0.00 0.01 0.01 67 1015.4
20260510175510 72 299 6.0 7.0 0.00 0.01 0.01 69 1015.4
20260510175006 73 297 11.0 13.0 0.00 0.01 0.01 67 1015.2
20260510174505 73 0 1.0 2.0 0.00 0.01 0.01 68 1015.1
20260510174001 72 340 4.0 5.0 0.00 0.01 0.01 68 1015.1
20260510173457 72 283 5.0 6.0 0.00 0.01 0.01 69 1015.2
20260510172954 73 310 3.0 5.0 0.00 0.01 0.01 66 1014.9
20260510172449 73 261 4.0 5.0 0.00 0.01 0.01 65 1015.1
20260510171946 73 211 7.0 10.0 0.00 0.01 0.01 63 1015.0
20260510171443 73 291 7.0 10.0 0.00 0.01 0.01 64 1014.9
20260510170939 73 305 9.0 10.0 0.00 0.01 0.01 63 1015.0
20260510170436 73 263 4.0 5.0 0.00 0.01 0.01 66 1014.9
20260510165932 73 334 7.0 10.0 0.00 0.01 0.01 64 1014.8
20260510165422 73 220 5.0 8.0 0.00 0.01 0.01 64 1014.7
20260510164919 74 298 8.0 10.0 0.00 0.01 0.01 64 1015.0
20260510164416 74 324 5.0 7.0 0.00 0.01 0.01 66 1014.8
20260510163917 72 237 4.0 5.0 0.00 0.01 0.01 69 1014.8
20260510163414 73 302 6.0 8.0 0.00 0.01 0.01 67 1014.6
20260510162914 72 300 4.0 5.0 0.00 0.01 0.01 70 1014.8
20260510162411 71 277 3.0 5.0 0.00 0.01 0.01 72 1014.8
20260510161906 73 176 1.0 1.0 0.00 0.01 0.01 71 1014.7
20260510161402 72 141 2.0 2.0 0.00 0.01 0.01 73 1014.7
20260510160900 70 303 3.0 3.0 0.00 0.01 0.01 72 1014.8
20260510160357 70 300 3.0 3.0 0.00 0.01 0.01 74 1014.7
20260510155855 71 174 2.0 3.0 0.00 0.01 0.01 77 1014.8
20260510155353 71 149 1.0 1.0 0.00 0.01 0.01 76 1014.7
20260510154849 69 148 0.0 0.0 0.00 0.01 0.01 77 1014.8
20260510154345 70 289 2.0 3.0 0.00 0.01 0.01 79 1014.8
20260510153839 69 214 3.0 3.0 0.00 0.01 0.01 78 1014.7
20260510153335 69 187 1.0 2.0 0.00 0.01 0.01 81 1014.7
20260510152832 69 87 0.0 0.0 0.00 0.01 0.01 83 1014.9
20260510152329 68 359 1.0 2.0 0.00 0.01 0.01 83 1015.0
20260510151826 66 107 1.0 1.0 0.00 0.01 0.01 85 1015.2
20260510151324 65 128 0.0 1.0 0.00 0.01 0.01 87 1015.0
20260510150819 66 303 1.0 2.0 0.00 0.01 0.01 85 1014.9
20260510150315 65 154 0.0 1.0 0.00 0.01 0.01 88 1014.9
20260510145812 65 231 2.0 2.0 0.00 0.01 0.01 87 1015.1
20260510145308 64 260 2.0 2.0 0.00 0.01 0.01 87 1014.9
20260510144805 64 117 1.0 1.0 0.00 0.01 0.01 88 1014.9
20260510144302 64 123 1.0 2.0 0.00 0.01 0.01 88 1014.9
20260510143801 63 112 0.0 0.0 0.00 0.01 0.01 90 1014.8
20260510143257 62 145 1.0 1.0 0.00 0.01 0.01 92 1014.9
20260510142754 62 222 2.0 3.0 0.00 0.01 0.01 92 1015.1
20260510142251 61 137 1.0 1.0 0.00 0.01 0.01 95 1015.1
20260510141748 60 226 3.0 3.0 0.00 0.01 0.01 97 1014.9
20260510141246 59 232 2.0 2.0 0.00 0.01 0.01 99 1015.2
20260510140742 59 108 0.0 0.0 0.00 0.01 0.01 99 1015.0
20260510140238 58 313 3.0 3.0 0.00 0.01 0.01 99 1015.1
20260510135732 57 285 2.0 2.0 0.00 0.01 0.01 99 1015.0
20260510135228 57 310 2.0 2.0 0.00 0.01 0.01 99 1014.9
20260510134726 57 272 3.0 3.0 0.00 0.01 0.01 99 1015.1
20260510134223 57 318 3.0 5.0 0.00 0.01 0.01 99 1014.9
20260510133718 56 292 1.0 1.0 0.00 0.01 0.01 99 1014.9
20260510133214 56 262 0.0 1.0 0.00 0.01 0.01 99 1014.7
20260510132710 56 302 2.0 2.0 0.00 0.01 0.01 99 1014.7
20260510132208 57 160 0.0 1.0 0.00 0.01 0.01 99 1014.9
20260510131705 55 217 0.0 0.0 0.00 0.01 0.01 99 1014.9
20260510131203 55 257 1.0 1.0 0.00 0.01 0.01 99 1014.8
20260510130659 55 263 1.0 1.0 0.00 0.01 0.01 99 1014.8
20260510130156 55 289 2.0 2.0 0.00 0.01 0.01 99 1014.8
20260510125652 54 288 0.0 1.0 0.00 0.01 0.01 99 1014.8
20260510125149 54 213 0.0 0.0 0.00 0.01 0.01 99 1015.0
20260510124646 53 283 1.0 1.0 0.00 0.01 0.01 99 1015.1
20260510124143 54 228 1.0 1.0 0.00 0.01 0.01 99 1015.0
20260510123638 53 237 0.0 0.0 0.00 0.01 0.01 99 1015.0
20260510123134 53 171 0.0 0.0 0.00 0.01 0.01 99 1014.9
20260510122631 53 223 0.0 0.0 0.00 0.01 0.01 99 1014.8
20260510122127 53 243 0.0 0.0 0.00 0.01 0.01 99 1014.5
20260510121624 53 303 1.0 2.0 0.00 0.01 0.01 99 1014.4
20260510121121 53 173 0.0 0.0 0.00 0.01 0.01 99 1014.6
20260510120619 53 240 1.0 1.0 0.00 0.01 0.01 99 1014.4
20260510120114 53 200 0.0 0.0 0.00 0.01 0.01 99 1014.6
20260510115611 53 238 1.0 1.0 0.00 0.01 0.01 99 1014.5
20260510115108 52 243 0.0 1.0 0.00 0.01 0.01 99 1014.4
20260510114604 52 298 1.0 1.0 0.00 0.01 0.01 99 1014.2
20260510114100 52 164 0.0 0.0 0.00 0.01 0.01 99 1014.1
20260510113555 53 182 0.0 0.0 0.00 0.01 0.01 99 1014.1
20260510113053 52 156 0.0 0.0 0.00 0.01 0.01 99 1013.9
20260510112549 52 243 0.0 1.0 0.00 0.01 0.01 99 1013.9
20260510112046 52 248 1.0 1.0 0.00 0.01 0.01 99 1013.2
20260510111543 52 127 1.0 1.0 0.00 0.01 0.01 99 1013.5
20260510111039 52 245 0.0 0.0 0.00 0.01 0.01 99 1013.8
20260510110535 52 153 0.0 0.0 0.00 0.01 0.01 99 1013.8
20260510110031 52 144 0.0 0.0 0.00 0.01 0.01 99 1013.6
20260510105527 52 188 0.0 0.0 0.00 0.01 0.01 99 1013.4
20260510105022 51 191 0.0 0.0 0.00 0.01 0.01 99 1013.5
20260510104519 51 203 0.0 0.0 0.00 0.01 0.01 99 1013.8
20260510104015 51 203 0.0 0.0 0.00 0.01 0.01 99 1013.6
20260510103512 51 203 0.0 0.0 0.00 0.01 0.01 99 1013.6
20260510103008 51 203 0.0 0.0 0.00 0.01 0.01 99 1013.6
20260510102504 51 230 0.0 0.0 0.00 0.01 0.01 99 1013.7
20260510102001 51 242 0.0 0.0 0.00 0.01 0.01 99 1013.7
20260510101458 51 252 0.0 0.0 0.00 0.01 0.01 99 1013.6
20260510100956 51 252 0.0 0.0 0.00 0.01 0.01 99 1013.8
20260510100452 51 283 1.0 1.0 0.00 0.01 0.01 99 1013.5
20260510095949 51 201 0.0 0.0 0.00 0.01 0.01 99 1013.3
20260510095444 51 163 0.0 0.0 0.00 0.01 0.01 99 1013.3
20260510094944 51 160 0.0 0.0 0.00 0.01 0.01 99 1013.1
20260510094439 51 159 0.0 0.0 0.00 0.01 0.01 99 1013.0
20260510093935 51 165 0.0 0.0 0.00 0.01 0.01 99 1013.3
20260510093430 51 236 0.0 0.0 0.00 0.01 0.01 99 1013.0
20260510092927 51 237 1.0 1.0 0.00 0.01 0.01 99 1013.2
20260510092419 51 117 1.0 2.0 0.00 0.01 0.01 99 1013.0
20260510091918 51 147 0.0 0.0 0.00 0.01 0.01 99 1013.0
20260510091416 51 134 0.0 0.0 0.00 0.01 0.01 99 1013.0
20260510090912 51 143 0.0 0.0 0.00 0.01 0.01 99 1012.7
20260510090409 51 129 1.0 1.0 0.00 0.01 0.01 99 1012.9
20260510085905 51 140 0.0 0.0 0.00 0.01 0.01 99 1012.6
20260510085400 51 124 0.0 0.0 0.00 0.01 0.01 99 1012.8
20260510084855 51 96 0.0 0.0 0.00 0.01 0.01 99 1013.1
20260510084353 51 142 0.0 1.0 0.00 0.01 0.01 99 1013.2
20260510083849 51 159 0.0 0.0 0.00 0.01 0.01 99 1013.1
20260510083340 51 160 0.0 0.0 0.00 0.01 0.01 99 1013.3
20260510082836 51 165 0.0 0.0 0.00 0.01 0.01 99 1013.2
20260510082333 51 138 0.0 0.0 0.00 0.01 0.01 99 1013.2
20260510081832 51 177 0.0 0.0 0.00 0.01 0.01 99 1013.2
20260510081328 51 229 0.0 0.0 0.00 0.01 0.01 99 1013.3
20260510080824 51 258 0.0 0.0 0.00 0.01 0.01 99 1013.5
20260510080319 51 152 0.0 0.0 0.00 0.01 0.01 99 1013.1
20260510075817 51 264 0.0 1.0 0.00 0.01 0.01 99 1013.1
20260510075314 51 196 0.0 0.0 0.00 0.01 0.01 99 1013.2
20260510074811 51 162 0.0 0.0 0.00 0.01 0.01 99 1012.7
20260510074308 51 254 0.0 1.0 0.00 0.01 0.01 99 1013.5
20260510073803 51 166 1.0 1.0 0.00 0.01 0.01 99 1012.8
20260510073300 51 287 3.0 3.0 0.00 0.01 0.01 99 1012.7
20260510072755 51 129 0.0 0.0 0.00 0.01 0.01 99 1012.5
20260510072252 51 137 0.0 0.0 0.00 0.01 0.01 99 1012.4
20260510071748 51 140 0.0 0.0 0.00 0.01 0.01 99 1012.4
20260510071245 51 143 0.0 0.0 0.00 0.01 0.01 99 1012.6
20260510070744 50 139 0.0 0.0 0.00 0.01 0.01 99 1012.2
20260510070241 50 147 0.0 0.0 0.00 0.01 0.01 99 1012.6
20260510065735 50 169 0.0 0.0 0.00 0.01 0.01 99 1012.5
20260510065232 50 169 0.0 0.0 0.00 0.01 0.01 99 1012.4
20260510064728 50 154 0.0 0.0 0.00 0.01 0.01 99 1012.5
20260510064226 50 172 0.0 0.0 0.00 0.01 0.01 99 1012.8
20260510063722 50 171 0.0 0.0 0.05 0.01 0.01 99 1012.7
20260510063219 50 155 0.0 0.0 0.05 0.01 0.01 99 1012.7
20260510062715 50 272 0.0 0.0 0.00 0.00 0.00 99 1012.7
20260510062212 50 281 0.0 1.0 0.00 0.00 0.00 99 1012.7
20260510061707 50 173 0.0 0.0 0.00 0.00 0.00 99 1012.4
20260510061204 50 122 0.0 0.0 0.00 0.00 0.00 99 1012.6
20260510060701 49 84 0.0 0.0 0.00 0.00 0.00 99 1012.4
20260510060157 49 82 0.0 0.0 0.00 0.00 0.00 99 1012.3
20260510055653 49 77 0.0 1.0 0.00 0.00 0.00 99 1012.4
20260510055152 50 74 0.0 0.0 0.00 0.00 0.00 99 1012.1
20260510054647 50 78 0.0 0.0 0.00 0.00 0.00 99 1012.2
20260510054143 50 82 0.0 0.0 0.00 0.00 0.00 99 1012.5
20260510053642 50 81 0.0 0.0 0.00 0.00 0.00 99 1012.4
20260510053139 50 77 0.0 0.0 0.00 0.00 0.00 99 1012.5
20260510052635 50 82 0.0 0.0 0.00 0.00 0.00 99 1012.5
20260510052131 50 80 0.0 0.0 0.00 0.00 0.00 99 1012.4
20260510051627 50 81 0.0 0.0 0.00 0.00 0.00 99 1012.5
20260510051124 50 82 0.0 1.0 0.00 0.00 0.00 99 1012.4
20260510050621 50 76 0.0 0.0 0.00 0.00 0.00 99 1012.5
20260510050118 51 60 0.0 1.0 0.00 0.00 0.00 99 1012.7
20260510045615 50 73 0.0 0.0 0.00 0.00 0.00 99 1012.6
20260510045111 50 86 0.0 0.0 0.00 0.00 0.00 99 1012.6
20260510044608 50 82 0.0 0.0 0.00 0.00 0.00 99 1012.7
20260510044105 50 86 0.0 0.0 0.00 0.00 0.00 99 1012.7
20260510043600 50 86 0.0 0.0 0.00 0.00 0.00 99 1012.6
20260510043057 49 86 0.0 0.0 0.00 0.00 0.00 99 1012.6
20260510042555 49 86 0.0 0.0 0.00 0.00 0.00 99 1012.6
20260510042051 49 87 0.0 0.0 0.00 0.00 0.00 99 1012.7
20260510041548 49 86 0.0 0.0 0.00 0.00 0.00 99 1012.6
20260510041045 49 86 0.0 0.0 0.00 0.00 0.00 99 1012.9
20260510040542 49 86 0.0 0.0 0.00 0.00 0.00 99 1012.8
20260510040038 50 86 0.0 0.0 0.00 0.25 0.25 99 1012.6
20260510035534 50 86 0.0 0.0 0.00 0.25 0.25 99 1012.7
20260510035034 50 86 0.0 0.0 0.00 0.25 0.25 99 1012.8
20260510034533 50 86 0.0 0.0 0.00 0.25 0.25 99 1012.6
20260510034029 50 86 0.0 0.0 0.00 0.25 0.25 99 1012.7
20260510033525 51 86 0.0 0.0 0.00 0.25 0.25 99 1012.7
20260510033023 50 87 0.0 0.0 0.00 0.25 0.25 99 1012.6
20260510032519 50 86 0.0 0.0 0.00 0.25 0.25 99 1012.7
20260510032015 51 86 0.0 0.0 0.00 0.25 0.25 99 1012.7
20260510031510 51 86 0.0 0.0 0.00 0.25 0.25 99 1012.5
20260510031006 51 86 0.0 0.0 0.00 0.25 0.25 99 1012.4
20260510030502 50 86 0.0 0.0 0.00 0.25 0.25 99 1012.4
20260510025959 51 86 0.0 0.0 0.00 0.25 0.25 99 1012.6
20260510025456 51 86 0.0 0.0 0.00 0.25 0.25 99 1012.5
20260510024954 51 86 0.0 0.0 0.00 0.25 0.25 99 1012.5
20260510024450 51 39 0.0 0.0 0.00 0.25 0.25 99 1012.3
20260510023946 51 77 0.0 0.0 0.00 0.25 0.25 99 1012.4
20260510023442 52 104 0.0 0.0 0.00 0.25 0.25 99 1012.3
20260510022939 52 102 0.0 0.0 0.00 0.25 0.25 99 1012.4
20260510022438 52 94 0.0 0.0 0.00 0.25 0.25 99 1012.3
20260510021938 52 124 0.0 0.0 0.00 0.25 0.25 99 1012.2
20260510021436 52 124 0.0 0.0 0.00 0.25 0.25 99 1012.3
20260510020933 51 123 0.0 0.0 0.00 0.25 0.25 99 1012.1
20260510020433 52 124 0.0 0.0 0.00 0.25 0.25 99 1012.3
20260510015929 52 123 0.0 0.0 0.00 0.25 0.25 99 1012.5
20260510015425 52 123 0.0 0.0 0.00 0.25 0.25 99 1012.4
20260510014920 53 124 0.0 0.0 0.00 0.25 0.25 99 1012.1
20260510014418 53 152 0.0 0.0 0.00 0.25 0.25 99 1012.1
20260510013914 53 150 0.0 0.0 0.00 0.25 0.25 99 1012.0
20260510013409 53 150 0.0 0.0 0.00 0.25 0.25 99 1012.2
20260510012904 53 150 0.0 0.0 0.00 0.25 0.25 99 1012.2
20260510012400 54 164 0.0 1.0 0.00 0.25 0.25 99 1012.0
20260510011854 54 168 0.0 0.0 0.00 0.25 0.25 99 1011.7
20260510011350 54 142 0.0 0.0 0.00 0.25 0.25 99 1012.1
20260510010846 54 183 0.0 1.0 0.00 0.25 0.25 99 1012.0
20260510010344 54 137 0.0 0.0 0.00 0.25 0.25 99 1011.7
20260510005840 54 118 0.0 0.0 0.00 0.25 0.25 99 1011.9
20260510005337 55 170 0.0 0.0 0.00 0.25 0.25 99 1011.8
20260510004834 55 170 0.0 0.0 0.00 0.25 0.25 99 1011.7
20260510004332 55 206 0.0 1.0 0.00 0.25 0.25 99 1011.7
20260510003829 55 201 0.0 1.0 0.00 0.25 0.25 99 1011.5
20260510003326 55 152 0.0 0.0 0.00 0.25 0.25 99 1011.7
20260510002825 55 108 1.0 1.0 0.00 0.25 0.25 99 1011.7
20260510002322 55 162 0.0 0.0 0.00 0.25 0.25 99 1011.4
20260510001818 55 142 0.0 0.0 0.00 0.25 0.25 99 1011.6
20260510001317 55 155 0.0 0.0 0.00 0.25 0.25 99 1011.5
20260510000812 56 159 0.0 0.0 0.00 0.25 0.25 99 1011.4
20260510000311 56 109 1.0 2.0 0.00 0.25 0.25 99 1011.4
20260509235807 56 73 0.0 1.0 0.00 0.25 0.25 98 1011.2
20260509235306 56 162 0.0 0.0 0.00 0.25 0.25 98 1011.5
20260509234759 57 169 0.0 0.0 0.00 0.25 0.25 97 1011.5
20260509234256 57 159 0.0 0.0 0.00 0.25 0.25 97 1011.4
20260509233755 58 149 0.0 1.0 0.00 0.25 0.25 96 1011.3
20260509233252 58 144 1.0 1.0 0.00 0.25 0.25 96 1011.6
20260509232748 58 226 1.0 1.0 0.00 0.25 0.25 96 1011.3
20260509232245 58 217 1.0 1.0 0.00 0.25 0.25 96 1011.5
20260509231741 58 171 0.0 0.0 0.00 0.25 0.25 97 1011.5
20260509231238 58 163 0.0 0.0 0.00 0.25 0.25 96 1011.6